AirNav   Everest Fuels
 
 461 users online  

60KS Alley Field Airport
Douglass, Kansas, USA

GOING TO DOUGLASS?


FAA INFORMATION EFFECTIVE 05 NOVEMBER 2020

Location

FAA Identifier: 60KS
Lat/Long: 37-30-50.0710N 097-00-01.1310W
37-30.834517N 097-00.018850W
37.5139086,-97.0003142
(estimated)
Elevation: 1260 ft. / 384 m (estimated)
Variation: 07E (1985)
From city: 1 mile E of DOUGLASS, KS
Time zone: UTC -6 (UTC -5 during Daylight Saving Time)
Zip code: 67039

Airport Operations

Airport use: Private use. Permission required prior to landing
Activation date: 02/1987
Control tower: no
ARTCC: KANSAS CITY CENTER
FSS: WICHITA FLIGHT SERVICE STATION
Attendance: UNATNDD
Wind indicator: yes
Segmented circle: no

Airport Communications

WX AWOS-3PT at 3AU (10 nm N): 124.175 (316-733-6696)
WX AWOS-3PT at BEC (15 nm NW): 119.45 (316-515-7116)
WX AWOS-3 at 1K1 (17 nm N): 118.3 (316-530-6004)
WX ASOS at AAO (18 nm NW): 134.025 (316-636-2541)
WX AWOS-3P at EQA (18 nm NE): 120.875 (316-322-8095)

Nearby radio navigation aids

VOR radial/distance  VOR name  Freq  Var
ICTr110/31.0WICHITA VORTAC113.8007E

 
NDB name  Hdg/Dist  Freq  Var  ID
NEWTON153/35.528106EEWK . .-- -.-

Airport Services

Runway Information

Runway 17/35

Dimensions: 1200 x 75 ft. / 366 x 23 m
Surface: turf
RUNWAY 17  RUNWAY 35
Traffic pattern: rightleft

Airport Ownership and Management from official FAA records

Ownership: Privately-owned
Owner: LAWRENCE ALLEY
1220 E. 8TH
DOUGLASS, KS 67039
Phone 316-747-2510
Manager: LAWRENCE ALLEY
1220 E. 8TH
DOUGLASS, KS 67039
Phone 316-747-2510

Airport Operational Statistics

Aircraft based on the field: 2
Single engine airplanes: 2
    

Additional Remarks

FOR CD CTC WICHITA APCH AT 316-350-1520.

Instrument Procedures

There are no published instrument procedures at 60KS.

Some nearby airports with instrument procedures:

3AU - Augusta Municipal Airport (10 nm N)
KIAB - Mc Connell Air Force Base (14 nm NW)
KCEA - Cessna Aircraft Field Airport (14 nm NW)
KBEC - Beech Factory Airport (15 nm NW)
1K1 - Lloyd Stearman Field Airport (17 nm N)
KAAO - Colonel James Jabara Airport (18 nm NW)
KEQA - El Dorado/Captain Jack Thomas Memorial Airport (18 nm NE)
 
Loc | Ops | Rwys | IFR | FBO | Links
Com | Nav | Svcs | Stats | Notes
Area around 60KS (Alley Field Airport)
 
Road maps at: MapQuest Bing Google
 
Aerial photo
No photo
 
Sectional chart

 
Airport distance calculator
Flying to Alley Field Airport? Find the distance to fly.

From to 60KS

Sunrise and sunset
Times for 30-Nov-2020
 Local
(UTC-6)
 Zulu
(UTC)
Morning civil twilight06:5612:56
Sunrise07:2513:25
Sunset17:0923:09
Evening civil twilight17:3823:38

Current date and time
Zulu (UTC)  30-Nov-2020 07:51:51
Local (UTC-6)  30-Nov-2020 01:51:51
 
METAR
K3AU 
10nm N 
300735Z AUTO 33009KT 10SM CLR M02/M08 A3042 RMK AO2
KIAB 
14nm NW 
300656Z AUTO 36015KT 10SM CLR M01/M10 A3041 RMK AO2 SLP311 T10141098 $
KBEC 
15nm NW 
300735Z AUTO 33008KT 10SM CLR M02/M09 A3041 RMK AO2 T10181092
K1K1 
17nm N 
300735Z AUTO 33009KT 10SM CLR M03/M09 A3042 RMK AO2 T10261091
KAAO 
18nm NW 
300654Z AUTO 33011KT 10SM CLR M02/M09 A3042 RMK AO2 SLP314 T10221089
KEQA 
18nm NE 
300735Z AUTO 33009KT 10SM CLR M01/M07 A3040 RMK AO2
TAF
NOTAMs
Click for the latest NOTAMs
NOTAMs are issued by the DoD/FAA and will open in a separate window not controlled by AirNav.

 

 
 

Would you like to see your business listed on this page?

 If your business provides an interesting product or service to pilots, flight crews, aircraft, or users of the Alley Field Airport, you should consider listing it here.  To start the listing process, click on the button below
 
Add a business
 

Other Pages about Alley Field Airport

Update a link
 
Copyright © AirNav, LLC. All rights reserved. Privacy Policy  Contact